• In United Kingdom
  • List of Countries
  • For 7 days
  • Water Temperature
  • Satellite Maps
  • Weather Map
  • Weather Widgets
  • user-avatar
    Login

    Hourly Weather Mayrhofen

    Today, 16 July, Monday

    Time Temperature Precipitation Wind Pressure Humidity
    00:00 +9°C° 0 mm 1 mps 618 mmHg 88%
    01:00 +8°C° 0 mm 1 mps 618 mmHg 87%
    02:00 +8°C° 0 mm 1 mps 618 mmHg 87%
    03:00 +8°C° 0 mm 1 mps 617 mmHg 86%
    04:00 +7°C° 0 mm 1 mps 617 mmHg 86%
    05:00 +9°C° 0 mm 1 mps 618 mmHg 81%
    06:00 +11°C° 0 mm 1 mps 619 mmHg 75%
    07:00 +12°C° 0 mm 0 mps 619 mmHg 70%
    08:00 +14°C° 0.2 mm 0 mps 620 mmHg 63%
    09:00 +16°C° 0.2 mm 0 mps 620 mmHg 56%
    10:00 +18°C° 0.2 mm 0 mps 621 mmHg 50%
    11:00 +20°C° 0.5 mm 1 mps 620 mmHg 48%
    12:00 +20°C° 0.5 mm 1 mps 620 mmHg 47%
    13:00 +21°C° 0.5 mm 1 mps 620 mmHg 45%
    14:00 +20°C° 1.1 mm 1 mps 619 mmHg 51%
    15:00 +19°C° 1.1 mm 1 mps 619 mmHg 57%
    16:00 +18°C° 1.1 mm 1 mps 618 mmHg 63%
    17:00 +16°C° 0.9 mm 1 mps 618 mmHg 70%
    18:00 +15°C° 0.9 mm 1 mps 618 mmHg 76%
    19:00 +14°C° 0.9 mm 1 mps 617 mmHg 83%
    20:00 +13°C° 0.2 mm 1 mps 617 mmHg 86%
    21:00 +11°C° 0.2 mm 1 mps 617 mmHg 89%
    22:00 +9°C° 0.2 mm 2 mps 616 mmHg 92%
    23:00 +8°C° 0 mm 2 mps 616 mmHg 92%

    Tomorrow, 17 July, Tuesday

    Time Temperature Precipitation Wind Pressure Humidity
    00:00 +8°C° 0 mm 2 mps 616 mmHg 93%
    01:00 +7°C° 0 mm 2 mps 616 mmHg 94%
    02:00 +7°C° 0 mm 2 mps 616 mmHg 94%
    03:00 +7°C° 0 mm 2 mps 616 mmHg 94%
    04:00 +7°C° 0 mm 2 mps 616 mmHg 95%
    05:00 +8°C° 0.1 mm 2 mps 617 mmHg 91%
    06:00 +9°C° 0.1 mm 2 mps 617 mmHg 87%
    07:00 +12°C° 0.1 mm 2 mps 618 mmHg 84%
    08:00 +13°C° 0.1 mm 2 mps 619 mmHg 76%
    09:00 +15°C° 0.1 mm 2 mps 619 mmHg 67%
    10:00 +16°C° 0.1 mm 2 mps 620 mmHg 59%
    11:00 +17°C° 0.1 mm 2 mps 620 mmHg 56%
    12:00 +18°C° 0.1 mm 2 mps 620 mmHg 52%
    13:00 +19°C° 0.1 mm 2 mps 621 mmHg 49%
    14:00 +18°C° 0.4 mm 3 mps 620 mmHg 53%
    15:00 +18°C° 0.4 mm 3 mps 620 mmHg 57%
    16:00 +17°C° 0.4 mm 3 mps 620 mmHg 61%
    17:00 +16°C° 0.5 mm 2 mps 620 mmHg 68%
    18:00 +15°C° 0.5 mm 2 mps 620 mmHg 75%
    19:00 +14°C° 0.5 mm 2 mps 620 mmHg 81%
    20:00 +12°C° 0.1 mm 2 mps 619 mmHg 85%
    21:00 +10°C° 0.1 mm 2 mps 619 mmHg 89%
    22:00 +8°C° 0.1 mm 2 mps 619 mmHg 93%
    23:00 +8°C° 0 mm 2 mps 619 mmHg 93%

    Day after tomorrow, 18 July, Wednesday

    Time Temperature Precipitation Wind Pressure Humidity
    00:00 +7°C° 0 mm 2 mps 618 mmHg 92%
    01:00 +6°C° 0 mm 2 mps 618 mmHg 92%
    02:00 +6°C° 0 mm 2 mps 618 mmHg 91%
    03:00 +7°C° 0 mm 1 mps 618 mmHg 89%
    04:00 +6°C° 0 mm 1 mps 618 mmHg 88%
    05:00 +8°C° 0 mm 1 mps 619 mmHg 83%
    06:00 +10°C° 0 mm 1 mps 619 mmHg 77%
    07:00 +12°C° 0 mm 1 mps 620 mmHg 72%
    08:00 +14°C° 0 mm 1 mps 621 mmHg 63%
    09:00 +16°C° 0 mm 2 mps 622 mmHg 55%
    10:00 +19°C° 0 mm 2 mps 622 mmHg 46%
    11:00 +19°C° 0 mm 2 mps 622 mmHg 43%
    12:00 +20°C° 0 mm 2 mps 623 mmHg 41%
    13:00 +21°C° 0 mm 2 mps 623 mmHg 38%
    14:00 +21°C° 0 mm 2 mps 623 mmHg 40%
    15:00 +21°C° 0 mm 2 mps 622 mmHg 42%
    16:00 +21°C° 0 mm 2 mps 622 mmHg 44%
    17:00 +19°C° 0.1 mm 2 mps 622 mmHg 54%
    18:00 +18°C° 0.1 mm 2 mps 621 mmHg 64%
    19:00 +16°C° 0.1 mm 2 mps 621 mmHg 74%
    20:00 +14°C° 0.2 mm 1 mps 620 mmHg 80%
    21:00 +12°C° 0.2 mm 1 mps 620 mmHg 87%
    22:00 +10°C° 0.2 mm 1 mps 620 mmHg 93%
    23:00 +10°C° 0.1 mm 1 mps 619 mmHg 93%

    19 July, Thursday

    Time Temperature Precipitation Wind Pressure Humidity
    00:00 +10°C° 0.1 mm 1 mps 619 mmHg 93%
    01:00 +9°C° 0.1 mm 1 mps 619 mmHg 93%
    02:00 +9°C° 0 mm 1 mps 619 mmHg 93%
    03:00 +9°C° 0 mm 1 mps 619 mmHg 92%
    04:00 +9°C° 0 mm 1 mps 619 mmHg 91%
    05:00 +10°C° 0 mm 0 mps 619 mmHg 86%
    06:00 +12°C° 0 mm 0 mps 620 mmHg 80%
    07:00 +13°C° 0 mm 0 mps 621 mmHg 75%
    08:00 +15°C° 0 mm 0 mps 622 mmHg 67%
    09:00 +17°C° 0 mm 0 mps 622 mmHg 58%
    10:00 +21°C° 0 mm 1 mps 623 mmHg 50%
    11:00 +22°C° 0.4 mm 1 mps 623 mmHg 49%
    12:00 +22°C° 0.4 mm 1 mps 623 mmHg 47%
    13:00 +23°C° 0.4 mm 1 mps 623 mmHg 46%
    14:00 +22°C° 1.1 mm 1 mps 622 mmHg 51%
    15:00 +21°C° 1.1 mm 1 mps 622 mmHg 57%
    16:00 +21°C° 1.1 mm 1 mps 622 mmHg 62%
    17:00 +19°C° 1.3 mm 1 mps 621 mmHg 70%
    18:00 +18°C° 1.3 mm 1 mps 621 mmHg 78%
    19:00 +14°C° 1.3 mm 0 mps 620 mmHg 86%
    20:00 +14°C° 0.5 mm 1 mps 620 mmHg 87%
    21:00 +13°C° 0.5 mm 1 mps 620 mmHg 87%
    22:00 +13°C° 0.5 mm 1 mps 619 mmHg 88%
    23:00 +12°C° 0.1 mm 1 mps 619 mmHg 88%

    20 July, Friday

    Time Temperature Precipitation Wind Pressure Humidity
    00:00 +12°C° 0.1 mm 2 mps 619 mmHg 88%
    01:00 +10°C° 0.1 mm 2 mps 619 mmHg 88%
    02:00 +10°C° 0 mm 2 mps 618 mmHg 88%
    03:00 +10°C° 0 mm 2 mps 618 mmHg 88%
    04:00 +10°C° 0 mm 2 mps 618 mmHg 88%
    05:00 +12°C° 0 mm 2 mps 618 mmHg 85%
    06:00 +13°C° 0 mm 2 mps 619 mmHg 82%
    07:00 +14°C° 0 mm 1 mps 619 mmHg 78%
    08:00 +16°C° 0 mm 1 mps 620 mmHg 69%
    09:00 +19°C° 0 mm 1 mps 620 mmHg 60%
    10:00 +21°C° 0 mm 1 mps 621 mmHg 51%
    11:00 +22°C° 0.4 mm 1 mps 621 mmHg 50%
    12:00 +22°C° 0.4 mm 1 mps 621 mmHg 49%
    13:00 +23°C° 0.4 mm 2 mps 621 mmHg 48%
    14:00 +20°C° 1.8 mm 2 mps 620 mmHg 57%
    15:00 +19°C° 1.8 mm 2 mps 620 mmHg 65%
    16:00 +19°C° 1.8 mm 1 mps 619 mmHg 74%
    17:00 +18°C° 2.1 mm 1 mps 619 mmHg 79%
    18:00 +16°C° 2.1 mm 1 mps 618 mmHg 84%
    19:00 +15°C° 2.1 mm 1 mps 618 mmHg 90%
    20:00 +14°C° 1.1 mm 1 mps 618 mmHg 92%
    21:00 +13°C° 1.1 mm 1 mps 617 mmHg 94%
    22:00 +12°C° 1.1 mm 1 mps 617 mmHg 96%
    23:00 +12°C° 1 mm 1 mps 617 mmHg 96%

    21 July, Saturday

    Time Temperature Precipitation Wind Pressure Humidity
    00:00 +11°C° 1 mm 1 mps 617 mmHg 96%
    01:00 +11°C° 1 mm 1 mps 616 mmHg 96%
    02:00 +11°C° 0.5 mm 1 mps 616 mmHg 95%
    03:00 +10°C° 0.5 mm 1 mps 616 mmHg 95%
    04:00 +10°C° 0.5 mm 1 mps 616 mmHg 94%
    05:00 +11°C° 0.3 mm 1 mps 616 mmHg 92%
    06:00 +12°C° 0.3 mm 1 mps 616 mmHg 90%
    07:00 +12°C° 0.3 mm 1 mps 616 mmHg 88%
    08:00 +13°C° 0.4 mm 1 mps 617 mmHg 83%
    09:00 +14°C° 0.4 mm 1 mps 617 mmHg 78%
    10:00 +15°C° 0.4 mm 1 mps 617 mmHg 73%
    11:00 +16°C° 0.7 mm 1 mps 617 mmHg 72%
    12:00 +16°C° 0.7 mm 1 mps 617 mmHg 71%
    13:00 +18°C° 0.7 mm 1 mps 618 mmHg 70%
    14:00 +16°C° 1.5 mm 2 mps 617 mmHg 75%
    15:00 +15°C° 1.5 mm 2 mps 617 mmHg 80%
    16:00 +14°C° 1.5 mm 2 mps 617 mmHg 85%
    17:00 +13°C° 1.9 mm 2 mps 616 mmHg 89%
    18:00 +12°C° 1.9 mm 1 mps 616 mmHg 92%
    19:00 +12°C° 1.9 mm 1 mps 616 mmHg 95%
    20:00 +11°C° 1.5 mm 1 mps 616 mmHg 96%
    21:00 +10°C° 1.5 mm 2 mps 616 mmHg 96%
    22:00 +9°C° 1.5 mm 2 mps 616 mmHg 97%
    23:00 +9°C° 0.7 mm 2 mps 616 mmHg 97%
    Show more